Voltar ao catálogo

COSMOS 402

AtivoMilitarLEO
NORAD 5105·PAYLOAD·🇷🇺 Russia

Lançado Apr 1, 1971 de Baikonur Cosmodrome

Loading…

Próximas Passagens

TLE

Source: Space-Track
1 05105U 71025A   26229.90155289 -.00000074  00000-0  13577-4 0  9995
2 05105  64.9802  89.6383 0059111 258.5873 189.4583 13.73172864776509

Acompanhe COSMOS 402 em tempo real com AllMySat

Download on the App Store